Regional Weather Roundup
Issued by NWS Binghamton, NY

Home | Current Version | Previous Version | Text Only | Print | Product List | Glossary On
Versions: 1 2 3 4 5 6 7 8 9 10 11 12 13 14 15 16 17 18 19 20 21 22 23 24 25 26 27 28 29 30 31 32 33 34 35 36 37 38 39 40 41 42 43 44 45 46 47 48 49 50
000
ASUS41 KBGM 201810
RWRBGM
RWRBGM
BINGHAMTON REGIONAL WEATHER ROUNDUP
NATIONAL WEATHER SERVICE BINGHAMTON NY
200 PM EDT MON OCT 20 2014

Note: "fair" indicates few or no clouds below 12,000 feet with no
significant weather and/or obstructions to visibility.

* = Station(s) that does not report precipitation, such as rain,
snow, etc, also no thunder or fog.

!NYZ009-015>018-022>025-036-037-044>046-055>057-062-201900
...CENTRAL NEW YORK...

CITY           SKY/WX    TMP DP  RH WIND       PRES   REMARKS
BINGHAMTON     CLOUDY    50  36  58 S7        29.92F
CORTLAND       CLOUDY    48  39  71 S12G17    29.92F
DANSVILLE      CLOUDY    54  39  57 S7        29.87F
ELMIRA         CLOUDY    51  39  63 CALM      29.90F
ITHACA         CLOUDY    48  39  71 S8        29.92F
HAMILTON       CLOUDY    52  37  58 S6        29.91F
MONTICELLO     PTSUNNY   50  36  57 S6        29.98F
NORWICH        CLOUDY    50  36  57 S7        29.94S
PENN YAN       CLOUDY    50  37  61 S10       29.88F
ROME           CLOUDY    53  37  54 SW12      29.92F
SIDNEY         CLOUDY    55  41  58 SW3       29.94F
SYRACUSE       CLOUDY    57  39  51 SW8       29.89F
$$

!PAZ038>040-043-044-047-048-072-201900
...NORTHEAST PENNSYLVANIA...

CITY           SKY/WX    TMP DP  RH WIND       PRES   REMARKS
HAZLETON       PTSUNNY   54  34  47 S9G17     30.00F
SCRANTON       CLOUDY    52  35  52 CALM      29.96F
TOWANDA*       PTSUNNY   54  34  47 SW9       29.94S
$$
&&
KEY
WCI = WIND CHILL INDEX
VSB = VISIBILITY
HX  = HEAT INDEX
$$



USA.gov is the U.S. government's official web portal to all federal, state and local government web resources and services.